Regional Weather Roundup
Issued by NWS

Home | Current Version | Previous Version | Text Only | Print | Product List | Glossary Off
Versions: 1 2 3 4 5 6 7 8 9 10 11 12 13 14 15 16 17 18 19 20 21 22 23 24 25 26 27 28 29 30 31 32 33 34 35 36 37 38 39 40 41 42 43 44 45 46 47 48 49 50

000
ASUS45 KBOI 302110
RWRID

IDAHO REGIONAL WEATHER ROUNDUP
NATIONAL WEATHER SERVICE BOISE ID
300 PM MDT SUN APR 30 2017

NOTE: "FAIR" INDICATES FEW OR NO CLOUDS BELOW 12000 FEET
WITH NO SIGNIFICANT WEATHER AND/OR OBSTRUCTIONS TO VISIBILITY

IDZ012-014-302200-
SOUTHWEST IDAHO


CITY           SKY/WX    TMP DP  RH WIND       PRES   REMARKS
BOISE          SUNNY     63  38  39 NW8       30.09F
CALDWELL       PTSUNNY   63  41  44 N5        30.10F
MOUNTAIN HOME  MOSUNNY   61  40  46 W12       30.10F
$$

IDZ016-017-302200-
SOUTHCENTRAL IDAHO


CITY           SKY/WX    TMP DP  RH WIND       PRES   REMARKS
BURLEY         PTSUNNY   60  35  39 W20G30    30.08F
JEROME         CLOUDY    59  38  45 SW22G30   30.10F
TWIN FALLS     CLOUDY    59  39  47 W21G28    30.11F
$$

IDZ019>023-302200-
SOUTHEAST IDAHO


CITY           SKY/WX    TMP DP  RH WIND       PRES   REMARKS
IDAHO FALLS    CLOUDY    55  33  43 SW14      30.07F
POCATELLO      CLOUDY    56  35  45 W20       30.09S
REXBURG        CLOUDY    54  32  43 SW15G21   30.05F
$$

IDZ006-010-011-018-031-032-302200-
CENTRAL IDAHO MOUNTAINS


CITY           SKY/WX    TMP DP  RH WIND       PRES   REMARKS
MCCALL         PTSUNNY   50  32  50 SW15G22   30.08S
HAILEY         MOSUNNY   59  28  31 SW12G23   30.04F
STANLEY          N/A     45  28  51 N7        30.11F
SALMON         CLOUDY    55  34  44 CALM      29.98F
CHALLIS        CLOUDY    53  31  42 VRB5      30.02F
$$

IDZ002-004-006-007-026-302200-
NORTHERN IDAHO


CITY           SKY/WX    TMP DP  RH WIND       PRES   REMARKS
LEWISTON       MOSUNNY   65  34  31 W16G29    30.05R
LOWELL           N/A     56  48  74 CALM      30.06S
COEUR D`ALENE  PTSUNNY   57  34  41 W18       30.01R
MULLAN PASS    CLOUDY    33  31  92 W8G24     30.00S WCI  26
$$



USA.gov is the U.S. government's official web portal to all federal, state and local government web resources and services.